TimeCST,TemperatureF,Dew PointF,Humidity,Sea Level PressureIn,VisibilityMPH,Wind Direction,Wind SpeedMPH,Gust SpeedMPH,PrecipitationIn,Events,Conditions,WindDirDegrees,DateUTC
12:53 AM,33.1,18.0,54,30.24,10.0,ENE,6.9,-,N/A,,Overcast,60,2013-02-21 06:53:00
1:53 AM,33.1,18.0,54,30.22,10.0,ENE,9.2,-,N/A,,Overcast,70,2013-02-21 07:53:00
2:53 AM,33.1,19.0,56,30.19,10.0,ENE,11.5,-,N/A,,Overcast,70,2013-02-21 08:53:00
3:53 AM,32.0,19.0,59,30.21,10.0,East,9.2,-,N/A,,Overcast,80,2013-02-21 09:53:00
5:53 AM,30.9,19.9,64,30.16,10.0,East,9.2,-,0.00,,Overcast,90,2013-02-21 11:53:00
6:53 AM,30.9,19.9,64,30.14,10.0,East,10.4,18.4,N/A,,Overcast,100,2013-02-21 12:53:00
7:53 AM,32.0,21.0,64,30.16,10.0,ESE,9.2,-,N/A,,Overcast,110,2013-02-21 13:53:00
8:53 AM,32.0,21.9,66,30.13,10.0,East,10.4,-,0.00,,Overcast,90,2013-02-21 14:53:00
9:53 AM,34.0,21.9,61,30.08,10.0,East,13.8,-,N/A,,Overcast,100,2013-02-21 15:53:00
10:53 AM,37.0,21.9,54,30.03,10.0,East,15.0,-,N/A,,Mostly Cloudy,100,2013-02-21 16:53:00
11:53 AM,39.0,21.9,50,29.97,10.0,East,9.2,18.4,N/A,,Clear,100,2013-02-21 17:53:00
12:53 PM,39.0,23.0,53,29.94,10.0,East,5.8,-,0.00,Rain,Light Rain,90,2013-02-21 18:53:00
1:53 PM,36.0,30.0,79,29.96,4.0,NNE,4.6,-,0.20,Rain,Rain,30,2013-02-21 19:53:00
2:53 PM,35.1,30.9,85,29.88,6.0,ENE,11.5,-,0.23,Rain,Rain,70,2013-02-21 20:53:00
3:53 PM,36.0,33.1,89,29.83,4.0,East,13.8,23.0,0.14,Rain,Light Rain,100,2013-02-21 21:53:00
4:01 PM,35.6,33.8,93,29.85,4.0,ESE,6.9,18.4,0.03,Rain,Rain,110,2013-02-21 22:01:00
4:50 PM,37.4,35.6,93,29.83,7.0,East,12.7,-,0.08,Rain,Light Rain,100,2013-02-21 22:50:00
4:53 PM,37.0,35.1,93,29.85,10.0,ESE,9.2,-,0.08,Rain,Light Rain,120,2013-02-21 22:53:00
5:53 PM,37.9,36.0,93,29.86,10.0,ESE,8.1,-,0.04,,Overcast,110,2013-02-21 23:53:00
6:37 PM,39.2,37.4,93,29.83,10.0,ESE,8.1,-,0.03,Rain,Light Rain,110,2013-02-22 00:37:00
6:53 PM,39.9,37.9,93,29.84,10.0,ESE,8.1,-,0.03,Rain,Light Rain,110,2013-02-22 00:53:00
7:09 PM,39.2,37.4,93,29.82,10.0,East,8.1,-,0.00,,Overcast,100,2013-02-22 01:09:00
7:17 PM,41.0,39.2,93,29.83,10.0,East,4.6,-,0.01,Rain,Light Rain,100,2013-02-22 01:17:00
7:53 PM,42.1,39.9,92,29.81,10.0,ESE,9.2,16.1,0.01,,Overcast,120,2013-02-22 01:53:00
8:51 PM,44.6,41.0,87,29.79,10.0,ESE,6.9,-,N/A,,Overcast,120,2013-02-22 02:51:00
9:25 PM,44.6,42.8,93,29.83,10.0,ESE,4.6,16.1,N/A,,Overcast,120,2013-02-22 03:25:00
9:53 PM,44.1,43.0,96,29.85,10.0,Calm,Calm,-,0.00,,Overcast,0,2013-02-22 03:53:00
10:48 PM,42.8,42.8,100,29.84,2.0,Calm,Calm,-,0.02,Rain,Light Rain,0,2013-02-22 04:48:00
10:53 PM,44.1,42.1,93,29.85,3.0,Calm,Calm,-,0.02,Rain,Light Rain,0,2013-02-22 04:53:00
11:01 PM,42.8,42.8,100,29.84,2.5,SE,3.5,-,0.00,Rain,Light Rain,140,2013-02-22 05:01:00
11:17 PM,44.6,42.8,93,29.85,5.0,West,3.5,-,0.00,Rain,Light Rain,280,2013-02-22 05:17:00
11:28 PM,44.6,44.6,100,29.86,4.0,Calm,Calm,-,0.00,Rain,Light Rain,0,2013-02-22 05:28:00
11:42 PM,44.6,42.8,93,29.85,2.0,Calm,Calm,-,0.01,,Overcast,0,2013-02-22 05:42:00